Regional Weather Roundup
Issued by NWS Mobile, AL

Home | Current Version | Previous Version | Text Only | Print | Product List | Glossary On
Versions: 1 2 3 4 5 6 7 8 9 10 11 12 13 14 15 16 17 18 19 20 21 22 23 24 25 26 27 28 29 30 31 32 33 34 35 36 37 38 39 40 41 42 43 44 45 46 47 48 49 50
000
ASUS44 KMOB 220916
RWRMOB
REGIONAL WEATHER ROUNDUP
NATIONAL WEATHER SERVICE MOBILE AL
400 AM CDT FRI MAY 22 2015

ALZ061>064-221000-
COASTAL ALABAMA


CITY           SKY/WX    TMP DP  RH WIND       PRES   REMARKS
MOBILE REG APT CLOUDY    62  59  90 N7        30.12R
BROOKLEY FIELD CLOUDY    65  59  81 N10       30.12R
GULF SHORES    CLOUDY    66  64  92 N6        30.08R

$$

ALZ051>060-221000-
INTERIOR SOUTHWEST AND SOUTH CENTRAL ALABAMA


CITY           SKY/WX    TMP DP  RH WIND       PRES   REMARKS
ANDALUSIA/OPP  PTCLDY    64  55  72 N8        30.11R
EVERGREEN      CLEAR     59  53  80 N6        30.13R
FLORALA        PTSUNNY   63  57  81 N5        30.12R
GREENVILLE     FAIR      58  51  78 N5        30.12R

$$

FLZ001>006-221000-
WESTERN FLORIDA PANHANDLE


CITY           SKY/WX    TMP DP  RH WIND       PRES   REMARKS
CRESTVIEW      CLOUDY    67  61  81 N7        30.10R
DESTIN         CLOUDY    71  64  78 N8        30.07R
DUKE FIELD     MOCLDY    68  61  79 N13       30.07R
MARY ESTHER    CLOUDY    69  63  81 N6        30.06R
MILTON         PTSUNNY   67  60  78 N10       30.09R
PENSACOLA      MOCLDY    68  62  81 N10       30.08R
NAS PENSACOLA  MOCLDY    68  64  87 N9        30.07R
VALPARAISO     MOCLDY    69  63  79 N9        30.06R

$$

...MARINE OBSERVATIONS...

STATION/POSITION TIME  SKY/WX   TEMP    WIND        PRES    VSBY
                                AIR SEA DIR/SP/G
                 (UTC)          (F)     (DEG/KT/KT) (MB)    (MI)
PASCAGOULA       0800            66     360/ 12/ 16 1018.6R
PETIT BOIS ISL   0800            68      20/ 18/ 22 1018.8R
E DAUPHIN ISLAND 0900            70      20/ 16/ 18 1018.6R
MIDDLE BAY LIGHT 0800            68     360/ 22     1018.0R
USCG MOBILE BAY  0800            65 81   10/  8/ 12 1018.1R
STATE DOCKS      0800            66 78              1018.9R
MEAHER PARK      0900            65     350/  7     1019.6R
FORT MORGAN      0800            71      30/ 19/ 22 1017.5R
12 S ORANGE BCH  0850            73 81   20/ 16/ 19 1017.3R
WVE H/P(F/S)=  2/ 3

PENSACOLA BAY    0800            71 83   10/  5/  9 1018.0R
64 S DAUPHIN ISL 0850            79 82   60/ 14/ 16 1017.3R
WVE H/P(F/S)=  2/ 5

67 S FORT MORGAN 0830            79      90/ 10     1016.6R
115 SE PENSACOLA 0850            80 81  240/  4/  6 1016.6R
WVE H/P(F/S)=  1/ 4

MID GULF/42001   0850            80 82  130/  4/  6 1017.2R
WVE H/P(F/S)=  1/ 5

EAST GULF/42003  0850            80 82   60/  2/  2 1016.5F
WVE H/P(F/S)=  1/ 5


$$

...NEARBY LOCATIONS

CITY           SKY/WX    TMP DP  RH WIND       PRES   REMARKS
GULFPORT       CLOUDY    64  59  83 NE12      30.10R
BILOXI         CLOUDY    63  61  91 NE15      30.10S
PASCAGOULA     CLOUDY    64  60  87 N13       30.10S
HATTIESBURG    PTCLDY    58  53  84 N7        30.15S
LAUREL         CLEAR     55  48  76 NE7       30.16R
MERIDIAN       MOCLDY    52  49  89 N7        30.17R
MERIDIAN NAS   MOCLDY    52  49  89 N5        30.18R
MONTGOMERY     MOCLDY    58  49  72 N3        30.13R
MAXWELL AFB    MOCLDY    57  49  75 N7        30.12R
TROY           PTCLDY    58  51  78 N6        30.12R
FORT RUCKER    PTCLDY    62  56  80 N6        30.08R
DALEVILLE      MOCLDY    63  55  77 N8        30.09R
DOTHAN         PTCLDY    62  55  77 N5        30.11R

$$

...OTHER SURROUNDING LOCATIONS...

CITY           SKY/WX    TMP DP  RH WIND       PRES   REMARKS
BIRMINGHAM     PTCLDY    49  47  93 N6        30.17R
TUSCALOOSA     CLEAR     50  47  89 N5        30.17S
COLUMBUS GA    MOCLDY    57  46  66 N8        30.09R
PANAMA CITY    NOT AVBL
TALLAHASSEE    PTCLDY    72  63  73 N7        30.03R
BATON ROUGE    CLOUDY    64  61  90 CALM      30.11R
NEW ORLEANS    CLOUDY    71  67  87 NE10      30.08R
SLIDELL        CLOUDY    67  65  93 N8        30.08S
JACKSON        MOCLDY    54  49  83 NE7       30.18R
MCCOMB         CLOUDY    61  58  90 VRB3      30.14R

$$

...SURROUNDING MARINE OBSERVATIONS...

STATION/POSITION TIME  SKY/WX   TEMP    WIND        PRES    VSBY
                                AIR SEA DIR/SP/G
                 (UTC)          (F)     (DEG/KT/KT) (MB)    (MI)
WAVELAND         0800            67 77   20/ 16/ 19 1018.7R
PASCAGOULA RGN A 0800            66      20/ 12/ 17 1018.3R
PASCAGOULA PORT  0800               81                N/A
GRAND ISLE       0800            78 83   60/  8/ 10 1017.1R
SOUTHWEST PASS   0900            77      30/  7/  7 1017.2R
PILOT STATION E  0800            78 74   40/  8/  8 1017.0S
SHELL BEACH      0800            73 83   30/ 20/ 23 1017.3R
PANAMA CITY      0800            74 84   20/  4/  5 1016.5R
APALACHICOLA     0800            74 81   20/  5/  6 1016.3R
TYNDALL TOWER C  0900            76      30/ 11/ 12 1016.7R
S APLCHCLA/42036 0850            80 80  280/  8/  8 1016.2F
WVE H/P(F/S)=  1/ 4


$$



USA.gov is the U.S. government's official web portal to all federal, state and local government web resources and services.